Location: Newark
(30.3369°N, 81.6614°W)
Time: 19:55:21
(UTC+00:00)

N. Korean satellite - Pass Details

Date: 02 October 2020
Orbit: 452 x 505 km, 97.2° (Epoch: 28 October)

Event Time Altitude Azimuth Distance (km) Brightness Sun altitude
Rises 10:10:10 0° 29° (NNE) 2,537 10.7 -16.1°
Reaches altitude 10° 10:12:40 10° 47° (NE) 1,643 10.0 -15.6°
Maximum altitude 10:15:18 20° 96° (E) 1,151 9.5 -15.0°
Drops below altitude 10° 10:17:53 10° 144° (SE) 1,613 9.6 -14.4°
Sets 10:20:18 0° 162° (SSE) 2,474 10.3 -13.9°
